[[{"header":{"parameterUnit":"m.s-1","parameterCategory":1,"la1":30.2991,"la2":30.254,"lo1":-89.0895,"lo2":-89.0444,"dy":0.0017,"dx":0.0017,"nx":28,"ny":28,"refTime":"2025-09-14T21:00:00:Z","depth":0,"parameterNumber":2,"parameterNumberName":"U-component_of_WINDS"},"data":[0,0,0,0,0,0,0,0,0,0,0,0,0,0,0,0,0,0,0,0,0,0,0,0,0,0,0,0,0,0,0,0,0,0,0,0,0,0,0,0,0,0,0,0,0,0,0,0,0,0,0,0,0,0,0,0,0,0,-0.9708,-0.9709,0,-0.9751,-0.9752,-0.9752,-0.9774,-0.9774,-0.9774,-0.9774,-0.9814,-0.9815,-0.9816,0,0,0,0,0,0,0,0,0,0,0,0,0,-0.9643,-0.9644,-0.9708,-0.9709,-0.9709,-0.9751,-0.9752,-0.9752,-0.9774,-0.9774,-0.9774,-0.9774,-0.9814,-0.9815,-0.9816,0,0,0,0,0,0,0,0,0,0,0,0,0,-0.9677,-0.9644,-0.9708,-0.9726,-0.9727,-0.9751,-0.9752,-0.9752,-0.9774,-0.9774,-0.9774,-0.9774,-0.9813,-0.9815,-0.9816,-0.9825,0,0,-0.9821,-0.9822,0,0,0,0,0,0,0,0,-0.9675,-0.9679,-0.9722,-0.9724,-0.9727,-0.9757,-0.9743,-0.9776,-0.9774,-0.9756,-0.9774,-0.9774,-0.9795,-0.9798,-0.9806,-0.9827,-0.9828,-0.9821,-0.9822,-0.9823,-0.9823,0,0,0,0,0,0,0,-0.9672,-0.9677,-0.9725,-0.9723,-0.9726,-0.973,-0.9735,-0.975,-0.9775,-0.9758,-0.976,-0.9765,-0.9796,-0.9804,-0.9807,-0.9829,-0.9821,-0.9823,-0.9824,-0.9824,-0.986,-0.986,0,0,0,0,0,0,-0.9668,-0.9675,-0.9724,-0.9726,-0.9701,-0.9731,-0.9737,-0.9747,-0.9775,-0.9779,-0.9764,-0.9765,-0.9802,-0.9805,-0.9808,-0.9821,-0.9823,-0.9824,-0.9825,-0.9859,-0.986,-0.986,0,0,0,0,0,0,-0.9666,-0.9672,-0.9722,-0.9701,-0.9708,-0.9732,-0.9744,-0.9748,-0.9756,-0.978,-0.9784,-0.9768,-0.9802,-0.9806,-0.9821,-0.9822,-0.9825,-0.9826,-0.9859,-0.9859,-0.986,-0.9844,0,0,0,0,0,0,-0.9664,-0.9671,-0.9675,-0.9701,-0.9709,-0.9735,-0.9744,-0.9749,-0.976,-0.9761,-0.9784,-0.9788,-0.9802,-0.9819,-0.9823,-0.9824,-0.9828,-0.9859,-0.9859,-0.986,-0.9845,-0.9844,-0.9843,0,0,0,0,0,-0.9662,-0.9668,-0.9675,-0.9681,-0.9715,-0.9735,-0.9739,-0.9756,-0.976,-0.9763,-0.9778,-0.9788,-0.9822,-0.982,-0.9825,-0.9827,-0.9859,-0.9859,-0.986,-0.9845,-0.9844,-0.9843,0,0,0,0,0,0,-0.964,-0.9672,-0.968,-0.9696,-0.9713,-0.9739,-0.9744,-0.9754,-0.9769,-0.977,-0.9789,-0.9794,-0.9807,-0.9819,-0.9816,-0.9837,-0.9841,-0.9842,-0.9829,-0.9828,-0.9827,-0.9824,-0.9829,0,0,0,0,0,-0.9637,-0.9652,-0.9679,-0.9689,-0.9698,-0.9719,-0.9729,-0.974,-0.9758,-0.9765,-0.9781,-0.9797,-0.9811,-0.982,-0.9835,-0.9847,-0.9852,-0.985,-0.985,-0.9849,-0.9849,-0.9857,-0.9856,-0.986,-0.986,-0.986,0,0,-0.9631,-0.9651,-0.9658,-0.9686,-0.97,-0.9714,-0.9725,-0.9739,-0.9749,-0.9767,-0.9782,-0.9794,-0.9814,-0.9827,-0.9834,-0.9837,-0.985,-0.9849,-0.9848,-0.9849,-0.9857,-0.9856,-0.9856,-0.986,-0.986,-0.986,0,0,-0.9627,-0.9643,-0.9655,-0.967,-0.9692,-0.9707,-0.9709,-0.9734,-0.9743,-0.976,-0.9773,-0.9785,-0.9809,-0.9823,-0.9832,-0.9835,-0.9844,-0.9839,-0.9834,-0.9841,-0.9841,-0.984,-0.9841,-0.9842,-0.9839,-0.9839,-0.9839,0,-0.9616,-0.9639,-0.9659,-0.9673,-0.9684,-0.9702,-0.9713,-0.9726,-0.9751,-0.9759,-0.9762,-0.9794,-0.9807,-0.9825,-0.9825,-0.9833,-0.9836,-0.9836,-0.9839,-0.9839,-0.9839,-0.9841,-0.9841,-0.9838,-0.9838,-0.9839,-0.9839,0,-0.9625,-0.964,-0.9646,-0.9672,-0.9684,-0.9697,-0.9717,-0.9727,-0.9738,-0.9752,-0.9768,-0.9786,-0.9805,-0.981,-0.982,-0.9828,-0.983,-0.9836,-0.9841,-0.9838,-0.984,-0.984,-0.9837,-0.9838,-0.9838,-0.9838,0,0,-0.9607,-0.9645,-0.9647,-0.9659,-0.9686,-0.9698,-0.9711,-0.9731,-0.9739,-0.9756,-0.9767,-0.9787,-0.9794,-0.9805,-0.9817,-0.9823,-0.9824,-0.9829,-0.9829,-0.9827,-0.9835,-0.983,-0.983,-0.983,-0.9831,-0.9831,-0.9833,0,-0.9607,-0.9633,-0.9651,-0.9669,-0.9684,-0.9702,-0.9713,-0.973,-0.9744,-0.9757,-0.9771,-0.9786,-0.9793,-0.98,-0.9807,-0.9822,-0.9826,-0.9822,-0.984,-0.9841,-0.9835,-0.9831,-0.9826,-0.9827,-0.9834,-0.9834,-0.9834,0,-0.961,-0.9628,-0.9648,-0.9675,-0.9681,-0.9691,-0.9711,-0.9724,-0.9744,-0.9753,-0.9766,-0.9779,-0.9793,-0.9797,-0.9816,-0.9813,-0.9822,-0.983,-0.9831,-0.9833,-0.9837,-0.9833,-0.9828,-0.9829,-0.9835,-0.9835,-0.9835,0,-0.9596,-0.9625,-0.9641,-0.9651,-0.9682,-0.9688,-0.9701,-0.9721,-0.9732,-0.9749,-0.9756,-0.9774,-0.9784,-0.9797,-0.9814,-0.9816,-0.9832,-0.9837,-0.9839,-0.9839,-0.9841,-0.9841,-0.9838,-0.9847,-0.9847,-0.9847,-0.9847,0,-0.9593,-0.9605,-0.9635,-0.9645,-0.9658,-0.9679,-0.9691,-0.9706,-0.9723,-0.9736,-0.9752,-0.9763,-0.9785,-0.9798,-0.9811,-0.9825,-0.9829,-0.9837,-0.984,-0.9835,-0.9834,-0.9841,-0.9841,-0.9847,-0.9847,-0.9847,-0.9847,0,-0.9579,-0.96,-0.9619,-0.9647,-0.9654,-0.9663,-0.9686,-0.9696,-0.9711,-0.9727,-0.9731,-0.9754,-0.9771,-0.979,-0.9812,-0.9821,-0.9834,-0.9839,-0.9828,-0.983,-0.9831,-0.983,-0.9832,-0.9833,-0.9841,-0.9841,-0.9841,0,-0.9576,-0.9586,-0.9615,-0.9626,-0.9639,-0.9654,-0.9666,-0.9687,-0.9699,-0.9723,-0.9729,-0.9748,-0.9764,-0.9789,-0.9807,-0.9825,-0.983,-0.9829,-0.9832,-0.9828,-0.983,-0.9829,-0.983,-0.9828,-0.9828,-0.9828,-0.9828,0,-0.9568,-0.9579,-0.9596,-0.9617,-0.9631,-0.9648,-0.9666,-0.9673,-0.9697,-0.9709,-0.9728,-0.974,-0.9764,-0.9782,-0.9801,-0.9814,-0.9824,-0.9827,-0.9828,-0.9823,-0.9817,-0.982,-0.9825,-0.9826,-0.9826,-0.9827,-0.9827,-0.9827,-0.956,-0.9569,-0.9592,-0.9611,-0.9627,-0.9644,-0.9655,-0.9672,-0.9688,-0.971,-0.9721,-0.9739,-0.9759,-0.9787,-0.9799,-0.9813,-0.9816,-0.9818,-0.9819,-0.9819,-0.9818,-0.9815,-0.9817,-0.9817,-0.9817,-0.9817,-0.9817,0,-0.9553,-0.9569,-0.9586,-0.9612,-0.9626,-0.9637,-0.9658,-0.9669,-0.9685,-0.9703,-0.9719,-0.974,-0.9758,-0.9778,-0.9797,-0.9804,-0.981,-0.9808,-0.9808,-0.981,-0.9814,-0.9811,-0.9804,-0.9804,-0.9804,-0.9804,-0.9804,-0.9804,-0.9551,-0.9569,-0.9582,-0.9607,-0.9623,-0.9642,-0.9652,-0.9668,-0.9683,-0.9706,-0.9721,-0.9735,-0.9754,-0.9775,-0.9791,-0.9797,-0.9803,-0.98,-0.9807,-0.9809,-0.981,-0.9811,-0.9808,-0.9801,-0.9801,-0.9802,-0.9802,-0.9802]},{"header":{"parameterUnit":"m.s-1","parameterCategory":1,"la1":30.2991,"la2":30.254,"lo1":-89.0895,"lo2":-89.0444,"dy":0.0017,"dx":0.0017,"nx":28,"ny":28,"refTime":"2025-09-14T21:00:00:Z","depth":0,"parameterNumber":3,"parameterNumberName":"V-component_of_WINDS"},"data":[0,0,0,0,0,0,0,0,0,0,0,0,0,0,0,0,0,0,0,0,0,0,0,0,0,0,0,0,0,0,0,0,0,0,0,0,0,0,0,0,0,0,0,0,0,0,0,0,0,0,0,0,0,0,0,0,0,0,-0.2143,-0.2144,0,-0.2276,-0.2277,-0.2279,-0.2358,-0.2359,-0.2359,-0.236,-0.2493,-0.2496,-0.2499,0,0,0,0,0,0,0,0,0,0,0,0,0,-0.1953,-0.1956,-0.2142,-0.2144,-0.2146,-0.2276,-0.2277,-0.2279,-0.2358,-0.2359,-0.2359,-0.236,-0.2492,-0.2496,-0.25,0,0,0,0,0,0,0,0,0,0,0,0,0,-0.2055,-0.1957,-0.2142,-0.2201,-0.2208,-0.2275,-0.2277,-0.228,-0.2358,-0.2359,-0.2359,-0.236,-0.2491,-0.2495,-0.25,-0.2519,0,0,-0.2515,-0.2517,0,0,0,0,0,0,0,0,-0.2049,-0.2062,-0.2191,-0.2197,-0.2205,-0.2301,-0.226,-0.236,-0.2358,-0.2301,-0.236,-0.236,-0.2428,-0.2438,-0.2462,-0.2525,-0.2531,-0.2515,-0.2518,-0.252,-0.2521,0,0,0,0,0,0,0,-0.2042,-0.2057,-0.2195,-0.2192,-0.2201,-0.2219,-0.2235,-0.2279,-0.236,-0.2306,-0.2312,-0.2327,-0.2432,-0.2457,-0.2466,-0.2532,-0.2515,-0.2519,-0.2522,-0.2524,-0.2615,-0.2615,0,0,0,0,0,0,-0.2026,-0.205,-0.2191,-0.2199,-0.2127,-0.2222,-0.2239,-0.2269,-0.236,-0.2374,-0.2326,-0.233,-0.2449,-0.246,-0.2471,-0.2498,-0.252,-0.2525,-0.2527,-0.2615,-0.2615,-0.2614,0,0,0,0,0,0,-0.2022,-0.2038,-0.2186,-0.2127,-0.2147,-0.2225,-0.2258,-0.2272,-0.2297,-0.2375,-0.239,-0.2337,-0.245,-0.2464,-0.2506,-0.2503,-0.2527,-0.2531,-0.2616,-0.2615,-0.2615,-0.2551,0,0,0,0,0,0,-0.2016,-0.2036,-0.2045,-0.2126,-0.215,-0.2219,-0.2258,-0.2274,-0.2305,-0.2312,-0.2389,-0.2402,-0.2451,-0.2498,-0.2511,-0.251,-0.2535,-0.2617,-0.2616,-0.2615,-0.2554,-0.2548,-0.2544,0,0,0,0,0,-0.2009,-0.2021,-0.2045,-0.2061,-0.2163,-0.2219,-0.2233,-0.2289,-0.2305,-0.2314,-0.2364,-0.24,-0.2501,-0.2502,-0.2517,-0.2517,-0.2617,-0.2616,-0.2615,-0.2556,-0.255,-0.2544,0,0,0,0,0,0,-0.1937,-0.2033,-0.206,-0.21,-0.2151,-0.2233,-0.2246,-0.2281,-0.2328,-0.2332,-0.2399,-0.2416,-0.2451,-0.2488,-0.2487,-0.2539,-0.2563,-0.2565,-0.2513,-0.2508,-0.2503,-0.2493,-0.2539,0,0,0,0,0,-0.1926,-0.1965,-0.2047,-0.2073,-0.2098,-0.2167,-0.2194,-0.2233,-0.2288,-0.231,-0.2363,-0.2414,-0.2458,-0.2485,-0.2529,-0.2559,-0.2577,-0.2567,-0.2562,-0.2557,-0.2558,-0.2575,-0.2572,-0.2611,-0.2611,-0.2611,0,0,-0.1904,-0.1961,-0.1981,-0.206,-0.2105,-0.2142,-0.2185,-0.2223,-0.2251,-0.2316,-0.2359,-0.2399,-0.246,-0.2496,-0.2514,-0.2528,-0.2551,-0.2556,-0.2552,-0.2555,-0.2574,-0.257,-0.2567,-0.261,-0.261,-0.261,0,0,-0.1881,-0.1929,-0.1956,-0.1999,-0.2066,-0.2111,-0.2117,-0.2194,-0.2223,-0.2268,-0.2316,-0.235,-0.2423,-0.2465,-0.2495,-0.2486,-0.2521,-0.2499,-0.2472,-0.2488,-0.2485,-0.2483,-0.2478,-0.2476,-0.2499,-0.2499,-0.2499,0,-0.1845,-0.1905,-0.1965,-0.2001,-0.2033,-0.2093,-0.212,-0.2159,-0.2236,-0.2256,-0.2271,-0.2364,-0.2409,-0.2455,-0.2453,-0.2476,-0.2484,-0.2491,-0.2481,-0.2479,-0.2478,-0.2474,-0.2473,-0.2496,-0.2496,-0.2497,-0.2497,0,-0.1855,-0.1896,-0.1909,-0.1983,-0.2017,-0.2047,-0.2111,-0.2138,-0.2174,-0.2217,-0.226,-0.2317,-0.2373,-0.2387,-0.2422,-0.2437,-0.2443,-0.2468,-0.2494,-0.247,-0.2468,-0.2467,-0.2491,-0.2492,-0.2493,-0.2494,0,0,-0.1793,-0.1898,-0.1902,-0.1936,-0.2012,-0.2044,-0.2076,-0.2132,-0.2153,-0.2204,-0.2232,-0.2292,-0.2315,-0.235,-0.239,-0.2404,-0.2391,-0.2427,-0.243,-0.2418,-0.2409,-0.239,-0.2387,-0.2414,-0.2414,-0.2415,-0.2404,0,-0.1782,-0.1845,-0.1899,-0.1941,-0.1978,-0.2035,-0.2063,-0.2112,-0.2153,-0.219,-0.2234,-0.2276,-0.2304,-0.2325,-0.2341,-0.2389,-0.239,-0.2391,-0.244,-0.2441,-0.2423,-0.2387,-0.2366,-0.2354,-0.2404,-0.2404,-0.2403,0,-0.1778,-0.1826,-0.1871,-0.1943,-0.1961,-0.1985,-0.2039,-0.2074,-0.213,-0.2158,-0.2196,-0.2238,-0.2273,-0.2294,-0.2343,-0.2341,-0.2365,-0.2391,-0.2391,-0.2398,-0.2421,-0.2391,-0.2351,-0.2349,-0.2403,-0.2403,-0.2403,0,-0.1727,-0.1803,-0.184,-0.1866,-0.1951,-0.1966,-0.2002,-0.2059,-0.2088,-0.2135,-0.2154,-0.2204,-0.2231,-0.2268,-0.2321,-0.2332,-0.2363,-0.239,-0.2387,-0.2386,-0.2391,-0.239,-0.2354,-0.2406,-0.2406,-0.2406,-0.2407,0,-0.1708,-0.1734,-0.1818,-0.184,-0.187,-0.1931,-0.1959,-0.1999,-0.2048,-0.2079,-0.213,-0.2157,-0.2226,-0.2261,-0.2303,-0.2335,-0.2347,-0.2371,-0.2381,-0.2366,-0.2363,-0.2382,-0.2384,-0.2406,-0.2406,-0.2406,-0.2406,0,-0.1656,-0.1714,-0.1758,-0.1834,-0.1853,-0.1871,-0.1936,-0.1959,-0.2002,-0.204,-0.2052,-0.212,-0.2163,-0.222,-0.2281,-0.2309,-0.2336,-0.2353,-0.2317,-0.2324,-0.2318,-0.2317,-0.2292,-0.2291,-0.2344,-0.2343,-0.2343,0,-0.1641,-0.1662,-0.174,-0.1764,-0.1798,-0.1837,-0.1867,-0.1927,-0.1956,-0.202,-0.2035,-0.2083,-0.2124,-0.219,-0.2244,-0.229,-0.2308,-0.2296,-0.2315,-0.2299,-0.2307,-0.2305,-0.2307,-0.2291,-0.229,-0.2289,-0.2289,0,-0.1607,-0.1634,-0.1676,-0.1726,-0.1761,-0.1804,-0.1849,-0.1866,-0.1935,-0.1965,-0.201,-0.2042,-0.2104,-0.215,-0.2203,-0.2238,-0.2274,-0.2282,-0.2284,-0.2268,-0.2246,-0.2257,-0.2304,-0.2283,-0.2283,-0.2284,-0.2284,-0.2284,-0.1573,-0.1593,-0.1651,-0.1695,-0.1735,-0.1776,-0.1801,-0.1847,-0.1886,-0.1942,-0.1975,-0.2018,-0.2072,-0.2147,-0.218,-0.2214,-0.2228,-0.2231,-0.2232,-0.2231,-0.2226,-0.2241,-0.2224,-0.2224,-0.2225,-0.2225,-0.2225,0,-0.154,-0.158,-0.162,-0.1681,-0.1715,-0.1747,-0.1798,-0.1824,-0.1862,-0.191,-0.1949,-0.2,-0.2044,-0.21,-0.2148,-0.2164,-0.2182,-0.2174,-0.2174,-0.2181,-0.2211,-0.2204,-0.2159,-0.2159,-0.2159,-0.2159,-0.2159,-0.2159,-0.1528,-0.1564,-0.1597,-0.1653,-0.1692,-0.1736,-0.1762,-0.1799,-0.1837,-0.1892,-0.1929,-0.1966,-0.2016,-0.2067,-0.2109,-0.2124,-0.2139,-0.2126,-0.2146,-0.2173,-0.2179,-0.2185,-0.2179,-0.2129,-0.2129,-0.2114,-0.2113,-0.2113]}]]